Location: Detroit
(42.3310°N, 83.0460°W)
Time: 11:50:25
(UTC-05:00)

ISS - Pass Details

Date: 04 December 2021
Orbit: 413 x 422 km, 51.6° (Epoch: 19 January)

Event Time Altitude Azimuth Distance (km) Brightness Sun altitude
Rises 19:39:40 0° 299° (WNW) 2,379 0.9 -28.8°
Reaches altitude 10° 19:41:52 10° 291° (WNW) 1,508 -0.2 -29.2°
Enters shadow 19:42:44 16° 284° (WNW) 1,185 -0.8 -29.4°
